Швенчёнеляй

Литва     55°09′38″N   26°00′09″E
темп.,
°C
ветер,
м/с
пор.,
м/с
влажн.,
%
обл.,
%
осадки,
мм/ч
давл.,
гПа
погр.,
м
17 октября, вс
вс1700:00+7зюз51384100 0.0 1014881
03:00+6зюз61383100 0.0 1014796
06:00+6зюз5138575 0.0 1013567
09:00+6юз51285100 0.2 1013572
12:00+8зюз5118392 0.1 1014708
15:00+10зюз61174100 0.5 10131151
18:00+8зюз5118355 0.4 1013807
21:00+7зюз61187100 0.6 1013804
18 октября, пн
пн1800:00+7зюз51287100 0.0 1013640
03:00+6з4893100 0.4 1014982
06:00+5сз38915 0.4 1015384
09:00+3зсз3986100 0.4 1016285
12:00+7зсз58595 0.0 10171123
15:00+9зсз59485 0.0 10171491
18:00+6сз49605 0.0 1018339
21:00+3зсз311745 0.0 1019348
19 октября, вт
вт1900:00+2зсз310815 0.0 1021337
03:00+1зсз310875 0.0 1023309
06:00+1зсз399340 0.0 1024257
09:00+1зсз399272 0.0 1025258
12:00+6зсз36699 0.0 1025762
15:00+7зсз455799 0.1 10251445
18:00+5з2271100 0.0 102418
21:00+5ююз2475100 0.0 1024113
20 октября, ср
ср2000:00+5ююз3874100 0.0 1023360
03:00+4ююв41082100 0.3 1020604
06:00+4ю51386100 0.1 1017484
09:00+5ю51383100 0.7 1014425
12:00+6ю51492100 1.6 1012499
15:00+8ююз61494100 3.3 1008704
18:00+9юз61598100 1.2 1006612
21:00+10ююз61595100 1.2 1005556
21 октября, чт
чт2100:00+11юз61693100 0.0 1004611
03:00+12юз71789100 0.1 1002772
06:00+11юз71689100 0.0 1001650
09:00+11юз61688100 0.0 999655
12:00+13ююз7168096 0.0 998839
15:00+15юз91773100 0.0 9961536
18:00+14зюз9196796 0.8 9961739
21:00+11зюз8166867 0.8 9991296